Hourly Data Report for March 07, 2012

All times are specified in Local Standard Time (LST). Add 1 hour to adjust for Daylight Saving Time where and when it is observed.

Metadata including Station Name, Province, Latitude, Longitude, Elevation, Climate ID, WMO ID, TC ID
ST-JOVITE
QUEBEC
Latitude: 46°04'49.000" N Longitude: 74°33'21.000" W Elevation: 238.50 m
Climate ID: 703GDKB WMO ID: 71376 TC ID: WJT
Hourly Data Report for March 7, 2012
Temp Definition
°C

Dew Point Temp Definition
°C

Rel Hum Definition
%

Wind Dir Definition
10's deg
Wind Spd Definition
km/h

Visibility Definition
km

Stn Press Definition
kPa

Hmdx Definition

Wind Chill Definition

Weather Definition

TIME
00:00 -5.6 -12.2 60 7 6 99.88 -8 LegendNANA
01:00 -5.9 -13.5 55 8 7 99.82 -9 LegendNANA
02:00 -5.5 -13.4 54 8 6 99.67 -8 LegendNANA
03:00 -4.9 -13.5 51 9 4 99.57 -7 LegendNANA
04:00 -4.2 -12.1 54 9 4 99.51 -6 LegendNANA
05:00 -3.9 -10.3 61 10 4 99.43 -6 LegendNANA
06:00 -3.6 -9.3 65 9 4 99.38 -5 LegendNANA
07:00 -3.4 -9.1 65 8 4 99.32 -5 LegendNANA
08:00 -2.0 -9.1 58 8 4 99.28 -3 LegendNANA
09:00 2.5 -7.0 49 10 2 99.22 LegendNANA
10:00 5.0 -6.7 42 20 9 99.14 LegendNANA
11:00 7.7 -5.3 39 22 11 99.04 LegendNANA
12:00 8.6 -4.3 40 21 15 98.96 LegendNANA
13:00 9.3 -4.2 38 20 17 98.87 LegendNANA
14:00 10.3 -3.8 37 21 13 98.83 LegendNANA
15:00 10.9 -3.3 37 21 13 98.79 LegendNANA
16:00 10.4 -2.4 41 20 9 98.75 LegendNANA
17:00 10.3 -1.9 42 20 11 98.68 LegendNANA
18:00 9.6 -1.4 46 20 11 98.68 LegendNANA
19:00 9.7 -0.7 48 19 9 98.62 LegendNANA
20:00 8.7 -0.5 52 22 6 98.64 LegendNANA
21:00 5.5 -0.5 65 14 2 98.63 LegendNANA
22:00 4.3 0.1 74 12 2 98.58 LegendNANA
23:00 8.8 1.6 61 21 7 98.52 LegendNANA

Notes on Data Quality.

Legend
  • E = Estimated
  • M = Missing
  • NA = Not Available
  • ‡ = Partner data that is not subject to review by the National Climate Archives